TimeEDT,TemperatureF,Dew PointF,Humidity,Sea Level PressureIn,VisibilityMPH,Wind Direction,Wind SpeedMPH,Gust SpeedMPH,PrecipitationIn,Events,Conditions,WindDirDegrees,DateUTC
12:51 AM,50.0,46.0,86,30.07,10.0,Calm,Calm,-,N/A,,Partly Cloudy,0,2012-09-17 04:51:00
1:51 AM,48.0,45.0,89,30.08,10.0,Calm,Calm,-,N/A,,Partly Cloudy,0,2012-09-17 05:51:00
2:51 AM,48.0,46.0,93,30.08,10.0,Calm,Calm,-,N/A,,Scattered Clouds,0,2012-09-17 06:51:00
3:51 AM,48.0,45.0,89,30.07,10.0,Calm,Calm,-,N/A,,Partly Cloudy,0,2012-09-17 07:51:00
4:51 AM,46.9,45.0,93,30.08,10.0,Calm,Calm,-,N/A,,Scattered Clouds,0,2012-09-17 08:51:00
5:51 AM,46.0,44.1,93,30.09,10.0,Calm,Calm,-,N/A,,Partly Cloudy,0,2012-09-17 09:51:00
6:51 AM,46.9,45.0,93,30.10,10.0,Calm,Calm,-,N/A,Fog,Partly Cloudy,0,2012-09-17 10:51:00
7:51 AM,51.1,46.9,86,30.11,10.0,South,5.8,-,N/A,Fog,Partly Cloudy,180,2012-09-17 11:51:00
8:51 AM,55.0,48.9,80,30.12,10.0,South,9.2,-,N/A,Fog,Partly Cloudy,170,2012-09-17 12:51:00
9:51 AM,57.9,48.9,72,30.11,10.0,South,8.1,-,N/A,,Clear,180,2012-09-17 13:51:00
10:51 AM,62.1,50.0,65,30.10,10.0,SSE,6.9,-,N/A,,Clear,150,2012-09-17 14:51:00
11:51 AM,68.0,51.1,55,30.09,10.0,South,6.9,-,N/A,,Partly Cloudy,170,2012-09-17 15:51:00
12:51 PM,72.0,52.0,49,30.07,10.0,South,6.9,-,N/A,,Partly Cloudy,180,2012-09-17 16:51:00
1:51 PM,73.9,53.1,48,30.04,10.0,Variable,4.6,-,N/A,,Partly Cloudy,0,2012-09-17 17:51:00
2:51 PM,75.9,53.1,45,30.02,10.0,South,6.9,-,N/A,,Scattered Clouds,180,2012-09-17 18:51:00
3:51 PM,77.0,52.0,42,30.00,10.0,South,9.2,-,N/A,,Scattered Clouds,170,2012-09-17 19:51:00
4:51 PM,75.9,53.1,45,30.00,10.0,South,12.7,-,N/A,,Scattered Clouds,170,2012-09-17 20:51:00
5:51 PM,73.4,53.6,50,30.00,10.0,South,11.5,-,N/A,,Mostly Cloudy,170,2012-09-17 21:51:00
6:51 PM,72.0,53.1,51,30.00,10.0,South,8.1,-,N/A,,Mostly Cloudy,170,2012-09-17 22:51:00
7:51 PM,69.1,52.0,54,30.01,10.0,South,6.9,-,N/A,,Scattered Clouds,170,2012-09-17 23:51:00
8:51 PM,66.9,53.1,61,30.01,10.0,South,8.1,-,N/A,,Scattered Clouds,170,2012-09-18 00:51:00
9:51 PM,64.9,54.0,68,30.01,10.0,SSE,4.6,-,N/A,,Scattered Clouds,160,2012-09-18 01:51:00
10:51 PM,64.9,53.1,65,30.01,10.0,South,6.9,-,N/A,,Partly Cloudy,170,2012-09-18 02:51:00
11:51 PM,64.0,53.1,67,30.00,10.0,South,9.2,-,N/A,,Mostly Cloudy,170,2012-09-18 03:51:00